This is the latest recevied weather packets stored in our database for station/object SV2RCS-13. If no packets are shown the sender has not sent any weather packets the latest 10 day(s).
| Time | Temp. | Humidity | Pressure | Rain* | Wind** | Luminosity | Snow |
|---|---|---|---|---|---|---|---|
| 1788215139 | 25° C | 50% | 1014.3 hPa | - | - | - | - |
| 1788214539 | 25° C | 50% | 1014.3 hPa | - | - | - | - |
| 1788213939 | 25° C | 49% | 1014.4 hPa | - | - | - | - |
| 1788213339 | 25° C | 49% | 1014.2 hPa | - | - | - | - |
| 1788212739 | 25° C | 49% | 1014.2 hPa | - | - | - | - |
| 1788212140 | 25° C | 50% | 1014.2 hPa | - | - | - | - |
| 1788211542 | 25° C | 49% | 1014 hPa | - | - | - | - |
| 1788210939 | 25° C | 49% | 1013.9 hPa | - | - | - | - |
| 1788210339 | 25° C | 49% | 1013.8 hPa | - | - | - | - |
| 1788209740 | 25.56° C | 49% | 1013.9 hPa | - | - | - | - |
| 1788209140 | 25° C | 49% | 1013.9 hPa | - | - | - | - |
| 1788208539 | 25° C | 49% | 1014 hPa | - | - | - | - |
| 1788207939 | 25.56° C | 49% | 1014.1 hPa | - | - | - | - |
| 1788207339 | 25.56° C | 49% | 1014.2 hPa | - | - | - | - |
| 1788206740 | 25.56° C | 49% | 1014.1 hPa | - | - | - | - |
| 1788206140 | 25.56° C | 49% | 1013.9 hPa | - | - | - | - |
| 1788205539 | 25.56° C | 48% | 1013.9 hPa | - | - | - | - |
| 1788204939 | 26.11° C | 48% | 1013.8 hPa | - | - | - | - |
| 1788204340 | 26.11° C | 48% | 1013.6 hPa | - | - | - | - |
| 1788203739 | 26.11° C | 47% | 1013.5 hPa | - | - | - | - |
| 1788203140 | 26.11° C | 47% | 1013.2 hPa | - | - | - | - |
| 1788202539 | 26.11° C | 47% | 1013 hPa | - | - | - | - |
| 1788201939 | 26.67° C | 46% | 1012.9 hPa | - | - | - | - |
| 1788201338 | 26.67° C | 46% | 1012.8 hPa | - | - | - | - |
| 1788200740 | 27.22° C | 46% | 1012.5 hPa | - | - | - | - |
* Rain since midnight (hover to see other rain measurements)
** Current wind speed in m/s (hover to see current wind gust speed)